Location: North Runcton
(52.7000°N, 0.4333°E)
Time: 11:55:38
(UTC+00:00)

ATLAS CENTAUR R/B - Pass Details

Date: 19 May 2025
Orbit: 376 x 502 km, 64.6° (Epoch: 11 June)

Event Time Altitude Azimuth Distance (km) Brightness Sun altitude
Rises 20:55:09 0° 209° (SSW) 2,494 4.5 -7.6°
Reaches altitude 10° 20:57:15 10° 205° (SSW) 1,643 3.5 -7.8°
Maximum altitude 21:00:50 54° 128° (SE) 602 1.2 -8.1°
Drops below altitude 10° 21:04:35 10° 50° (NE) 1,710 3.8 -8.5°
Sets 21:06:48 0° 46° (NE) 2,609 4.8 -8.7°
